This demonstration page uses our WeatherBlox Daily Observations layout. Learn more.

Left ArrowRight Arrow

Hourly Observations for July 7, 2017

Temp ( °F °C ) Dew Point ( °F °C ) Humidity (%) Winds ( mph kmh ) Pressure ( in mb ) Visibility ( mi km ) Precip ( " mm )
12:15 am 00:15 Clear 75 24 61 16 61 61 WNW 3 6 30.00 1016 10 16 0.00 0.00
12:35 am 00:35 Partly Cloudy 74 23.5 62 16.7 66 66 NW 7 11 30.03 1017 10 16 0.00 0.00
12:55 am 00:55 Partly Cloudy 78 25.4 59 14.8 52 52 NW 10 17 30.00 1016 10 16 0.00 0.00
1:15 am 01:15 Partly Cloudy 76 24.5 60 15.8 58 58 NW 5 7 30.03 1017 10 16 0.00 0.00
1:35 am 01:35 Clear 75 24 61 15.9 61 61 W 8 13 30.00 1016 10 16 0.00 0.00
1:55 am 01:55 Clear with Nearby Thunderstorms 75 23.9 59 15.2 58 58 W 8 13 30.03 1017 10 16 0.00 0.00
2:15 am 02:15 Clear with Nearby Thunderstorms 74 23.5 58 14.6 57 57 WNW 8 13 30.03 1017 10 16 0.00 0.00
2:35 am 02:35 Clear 73 22.5 60 15.3 64 64 NNW 5 7 30.03 1017 10 16 0.00 0.00
2:55 am 02:55 Clear 70 21 61 16 73 73 N 6 9 30.06 1018 10 16 0.00 0.00
3:15 am 03:15 Clear with Nearby Thunderstorms 69 20.3 60 15.8 75 75 NNW 3 6 30.06 1018 10 16 0.00 0.00
3:35 am 03:35 Clear 67 19.7 60 15.7 78 78 WSW 7 11 30.06 1018 10 16 0.00 0.00
3:55 am 03:55 Clear 67 19.5 60 15.7 79 79 W 7 11 30.06 1018 10 16 0.00 0.00
4:15 am 04:15 Clear 68 19.8 60 15.3 75 75 W 7 11 30.09 1019 10 16 0.00 0.00
4:35 am 04:35 Clear 66 19.1 60 15.5 80 80 NNW 5 7 30.09 1019 10 16 0.00 0.00
4:55 am 04:55 Clear 66 19 60 15.5 80 80 NNW 7 11 30.09 1019 10 16 0.00 0.00
5:15 am 05:15 Clear 65 18.5 60 15.6 83 83 NNW 7 11 30.06 1018 10 16 0.00 0.00
5:35 am 05:35 Clear 65 18.6 60 15.5 82 82 N 6 9 30.06 1018 10 16 0.00 0.00
5:55 am 05:55 Clear 68 19.8 62 16.4 81 81 NNE 7 11 30.06 1018 10 16 0.00 0.00
6:15 am 06:15 Clear 68 19.9 62 16.9 83 83 Calm 30.09 1019 10 16 0.00 0.00
6:35 am 06:35 Sunny 69 20.5 63 17.2 81 81 NE 7 11 30.09 1019 10 16 0.00 0.00
6:55 am 06:55 Sunny 70 21.1 64 17.5 80 80 NE 10 17 30.09 1019 10 16 0.00 0.00
7:15 am 07:15 Sunny 70 21.2 64 17.6 80 80 NE 12 19 30.09 1019 10 16 0.00 0.00
7:35 am 07:35 Sunny 71 21.6 64 17.7 79 79 NE 10 17 30.06 1018 10 16 0.00 0.00
7:55 am 07:55 Sunny 72 22.1 64 17.9 77 77 NE 10 17 30.06 1018 10 16 0.00 0.00
8:15 am 08:15 Sunny 73 22.5 64 18 76 76 ENE 8 13 30.09 1019 10 16 0.00 0.00
8:35 am 08:35 Sunny 73 23 64 17.7 72 72 ENE 10 17 30.09 1019 10 16 0.00 0.00
8:55 am 08:55 Sunny with Nearby Thunderstorms 74 23.6 64 17.8 70 70 ENE 13 20 30.09 1019 10 16 0.00 0.00
9:15 am 09:15 Partly Cloudy with Thunderstorms 74 23.5 63 17.1 67 67 ENE 13 20 30.09 1019 10 16 0.00 0.00
9:35 am 09:35 Sunny 74 23.2 62 16.6 67 67 E 10 17 30.09 1019 10 16 0.00 0.00
9:55 am 09:55 Sunny 74 23.5 62 16.8 66 66 E 12 19 30.09 1019 10 16 0.00 0.00
10:15 am 10:15 Sunny 75 24.1 62 16.8 64 64 ESE 12 19 30.09 1019 10 16 0.00 0.00
10:35 am 10:35 Sunny 74 23.1 62 16.7 67 67 NNE 10 17 30.15 1021 10 16 0.00 0.00
10:55 am 10:55 Sunny 75 23.9 61 16.2 62 62 NNE 10 17 30.15 1021 10 16 0.00 0.00
11:15 am 11:15 Sunny 77 25.1 61 16.2 58 58 E 13 20 30.12 1020 10 16 0.00 0.00
11:35 am 11:35 Sunny 76 24.5 60 15.5 57 57 ENE 12 19 30.12 1020 10 16 0.00 0.00
11:55 am 11:55 Sunny 76 24.4 58 14.3 53 53 E 12 19 30.12 1020 10 16 0.00 0.00
12:15 pm 12:15 Sunny 77 24.9 58 14.3 52 52 E 10 17 30.12 1020 10 16 0.00 0.00
12:35 pm 12:35 Sunny 77 25 58 14.4 52 52 E 9 15 30.12 1020 10 16 0.00 0.00
12:55 pm 12:55 Sunny 78 25.8 59 14.8 51 51 ESE 10 17 30.06 1018 10 16 0.00 0.00
1:15 pm 13:15 Sunny 79 26 55 12.5 43 43 E 5 7 30.09 1019 10 16 0.00 0.00
1:35 pm 13:35 Sunny 79 25.9 56 13.3 46 46 E 8 13 30.06 1018 10 16 0.00 0.00
1:55 pm 13:55 Sunny 78 25.7 56 13.1 46 46 E 6 9 30.06 1018 10 16 0.00 0.00
2:15 pm 14:15 Sunny 79 26 57 13.8 47 47 E 7 11 30.06 1018 10 16 0.00 0.00
2:35 pm 14:35 Partly Cloudy 78 25.7 56 13.6 47 47 E 5 7 30.06 1018 10 16 0.00 0.00
2:55 pm 14:55 Partly Cloudy 79 26.2 56 13.2 45 45 ENE 6 9 30.06 1018 10 16 0.00 0.00
3:15 pm 15:15 Partly Cloudy 80 26.5 56 13.4 44 44 ENE 5 7 30.06 1018 10 16 0.00 0.00
3:35 pm 15:35 Sunny 80 26.9 58 14.7 47 47 ENE 8 13 30.06 1018 10 16 0.00 0.00
3:55 pm 15:55 Partly Cloudy 81 27.2 56 13.3 42 42 E 7 11 30.06 1018 10 16 0.00 0.00
4:15 pm 16:15 Partly Cloudy 82 27.9 56 13.3 41 41 E 6 9 30.06 1018 10 16 0.00 0.00
4:35 pm 16:35 Sunny 82 27.6 56 13.3 41 41 ENE 9 15 30.06 1018 10 16 0.00 0.00
4:55 pm 16:55 Sunny 82 27.8 54 12.3 38 38 ENE 6 9 30.06 1018 10 16 0.00 0.00
5:15 pm 17:15 Sunny 82 27.8 51 10.7 34 34 ENE 6 9 30.03 1017 10 16 0.00 0.00
5:35 pm 17:35 Sunny 82 28 53 11.7 36 36 E 6 9 30.03 1017 10 16 0.00 0.00
5:55 pm 17:55 Sunny 82 27.9 54 12 37 37 ENE 3 6 30.03 1017 10 16 0.00 0.00
6:15 pm 18:15 Sunny 82 28 56 13.4 41 41 E 7 11 30.03 1017 10 16 0.00 0.00
6:35 pm 18:35 Sunny 82 27.7 56 13.2 41 41 E 7 11 30.03 1017 10 16 0.00 0.00
6:55 pm 18:55 Sunny 82 27.5 53 11.8 38 38 ENE 6 9 30.03 1017 10 16 0.00 0.00
7:15 pm 19:15 Sunny 82 27.5 51 10.5 35 35 E 7 11 30.00 1016 10 16 0.00 0.00
7:35 pm 19:35 Sunny 81 27.2 52 11 36 36 ESE 5 7 30.00 1016 10 16 0.00 0.00
7:55 pm 19:55 Sunny 80 26.6 52 11.1 38 38 E 8 13 30.00 1016 10 16 0.00 0.00
8:15 pm 20:15 Sunny 79 26 53 11.9 41 41 ESE 5 7 30.00 1016 10 16 0.00 0.00
8:35 pm 20:35 Sunny 78 25.3 52 11 41 41 SE 5 7 30.00 1016 10 16 0.00 0.00
8:55 pm 20:55 Sunny 75 23.9 54 12.3 48 48 SE 5 7 30.03 1017 10 16 0.00 0.00
9:15 pm 21:15 Clear 74 23.1 55 13 53 53 SE 5 7 30.03 1017 10 16 0.00 0.00
9:35 pm 21:35 Clear 73 22.9 56 13.5 56 56 SSE 5 7 30.03 1017 10 16 0.00 0.00
9:55 pm 21:55 Clear 72 22.1 58 14.2 61 61 SSE 5 7 30.03 1017 10 16 0.00 0.00
10:15 pm 22:15 Clear 71 21.7 59 15 66 66 SE 5 7 30.03 1017 10 16 0.00 0.00
10:35 pm 22:35 Clear 70 21.2 59 14.9 67 67 SE 6 9 30.03 1017 10 16 0.00 0.00
10:55 pm 22:55 Clear 70 20.9 59 14.9 69 69 SE 3 6 30.06 1018 10 16 0.00 0.00
11:15 pm 23:15 Clear 66 19.1 59 15.1 78 78 E 5 7 30.06 1018 10 16 0.00 0.00
11:35 pm 23:35 Clear 65 18.2 59 15 82 82 E 5 7 30.06 1018 10 16 0.00 0.00
11:55 pm 23:55 Clear 64 18 59 14.8 82 82 ESE 3 6 30.06 1018 10 16 0.00 0.00

Powered by AerisWeather